This is the latest recevied weather packets stored in our database for station/object KA9CBS. If no packets are shown the sender has not sent any weather packets the latest 10 day(s).
| Time | Temp. | Humidity | Pressure | Rain* | Wind** | Luminosity | Snow |
|---|---|---|---|---|---|---|---|
| 1788097133 | 23.89° C | 78% | 1019.9 hPa | 0 mm | - | 183 W/m² | - |
| 1788096829 | 23.89° C | 79% | 1020 hPa | 0 mm | - | 179 W/m² | - |
| 1788096523 | 23.33° C | 80% | 1020.2 hPa | 0 mm | - | 163 W/m² | - |
| 1788096220 | 23.33° C | 80% | 1020.1 hPa | 0 mm | - | 157 W/m² | - |
| 1788095918 | 23.33° C | 82% | 1020.2 hPa | 0 mm | - | 139 W/m² | - |
| 1788095613 | 22.78° C | 81% | 1020.2 hPa | 0 mm | - | 126 W/m² | - |
| 1788095308 | 22.78° C | 82% | 1020.2 hPa | 0 mm | - | 78 W/m² | - |
| 1788095004 | 22.78° C | 83% | 1020.3 hPa | 0 mm | - | 66 W/m² | - |
| 1788094702 | 22.22° C | 84% | 1020.2 hPa | 0 mm | - | 63 W/m² | - |
| 1788094399 | 22.22° C | 84% | 1020.3 hPa | 0 mm | - | 59 W/m² | - |
| 1788094096 | 21.67° C | 85% | 1020.4 hPa | 0 mm | - | 55 W/m² | - |
| 1788093791 | 21.67° C | 85% | 1020.4 hPa | 0 mm | - | 52 W/m² | - |
| 1788093488 | 21.11° C | 87% | 1020.2 hPa | 0 mm | - | 46 W/m² | - |
| 1788093183 | 20.56° C | 89% | 1020.2 hPa | 0 mm | - | 38 W/m² | - |
| 1788092881 | 20.56° C | 89% | 1020 hPa | 0 mm | - | 35 W/m² | - |
| 1788092576 | 20° C | 89% | 1020.1 hPa | 0 mm | - | 33 W/m² | - |
| 1788092271 | 20° C | 89% | 1020.1 hPa | 0 mm | - | 31 W/m² | - |
| 1788091970 | 20° C | 90% | 1020 hPa | 0 mm | - | 29 W/m² | - |
| 1788091666 | 20° C | 91% | 1019.9 hPa | 0 mm | - | 26 W/m² | - |
| 1788091361 | 19.44° C | 90% | 1019.9 hPa | 0 mm | - | 22 W/m² | - |
| 1788091057 | 19.44° C | 91% | 1019.8 hPa | 0 mm | - | 19 W/m² | - |
| 1788090752 | 19.44° C | 92% | 1019.9 hPa | 0 mm | - | 16 W/m² | - |
| 1788090450 | 18.89° C | 92% | 1019.8 hPa | 0 mm | - | 12 W/m² | - |
| 1788090149 | 18.89° C | 92% | 1019.5 hPa | 0 mm | - | 10 W/m² | - |
| 1788089845 | 18.89° C | 92% | 1019.5 hPa | 0 mm | - | 7 W/m² | - |
* Rain latest hour (hover to see other rain measurements)
** Current wind speed in m/s (hover to see current wind gust speed)